Location: *
(45.0500°N, 12.0500°E)
Time: 23:35:41
(UTC+00:00)

ATLAS 5 CENTAUR R/B - Pass Details

Date: 09 April 2020
Orbit: 543 x 1116 km, 63.4° (Epoch: 01 May)

Event Time Altitude Azimuth Distance (km) Brightness Sun altitude
Rises 19:59:22 0° 249° (WSW) 2,753 5.3 -21.5°
Reaches altitude 10° 20:01:43 10° 261° (W) 1,905 4.6 -21.8°
Maximum altitude 20:05:26 29° 322° (NW) 1,164 3.6 -22.3°
Drops below altitude 10° 20:09:36 10° 23° (NNE) 2,141 4.5 -22.9°
Sets 20:12:25 0° 34° (NE) 3,165 5.3 -23.2°
